Weather in Novoselye

Russia / Yaroslavl Oblast     56°42′51″N   38°42′38″E
temp.,
°C
wind,
m/s
gust,
m/s
humid.,
%
clouds,
%
prec.,
mm/h
press.,
hPa
HPBL,
m
19 april, mon
mon1900:00+6ene51082100 0.0 1025629
03:00+5ene4888100 0.0 1026560
06:00+5ene5981100 0.0 1025594
09:00+5ene6968100 0.0 1026637
12:00+7ene6858100 0.0 10261014
15:00+7e6854100 0.0 10261117
18:00+8e585499 0.0 10251323
21:00+5e51152100 0.0 1026729
20 april, tue
tue2000:00+3e5125972 0.0 1026548
03:00+2e51262100 0.0 1026575
06:00+1e51266100 0.0 1025507
09:00+3e61063100 0.0 1025622
12:00+7e71052100 0.0 10231126
15:00+5ese61276100 0.3 10221066
18:00+5ese61488100 1.3 10201157
21:00+4ese61586100 1.8 10181130
21 april, wed
wed2100:00+6e71366100 0.1 1014984
03:00+1ene71797100 2.8 1010753
06:00+1e81797100 4.9 1006871
09:00+2e71695100 5.6 1002921
12:00+3se71297100 1.9 9991194
15:00+3s71497100 2.4 1001784
18:00+2ssw61197100 0.2 1006884
21:00+3ssw61196100 0.3 1009905
22 april, thu
thu2200:00+4ssw51191100 0.1 1011743
03:00+2ssw4119467 0.1 1012367
06:00+2s4119521 0.0 1013288
09:00+6ssw51081100 0.0 1014564
12:00+10ssw6868100 0.0 10141227
15:00+11sw696779 0.4 10141392
18:00+9ssw387929 0.2 1016735
21:00+6s399110 0.2 1017197
23 april, fri
fri2300:00+5s39935 0.0 1017165
03:00+5sse38945 0.0 1017151
06:00+5s39955 0.0 1017189
09:00+11s48755 0.0 1017433
12:00+15s69595 0.0 10161309
15:00+16ssw595410 1.1 10151585
18:00+15s510615 1.1 1014775
21:00+11sse513765 1.3 1014393